Torna al catalogo

OV1-4 R/B

AttivoLEO
NORAD 2124·ROCKET BODY·🇺🇸 United States

Lanciato Mar 30, 1966 da Vandenberg Space Force Base

Loading…

Prossimi Passaggi (prossime 24 ore)

TLE

AggiornatoSource: Space-Track

Epoca: Sep 14, 2026, 14:09 UTC

1 02124U 66025D   26257.58988573  .00000332  00000-0  49509-4 0  9992
2 02124 144.5093 147.6238 0080273  27.5756 332.9163 13.87854219 64027

Traccia OV1-4 R/B in tempo reale con AllMySat

Download on the App Store